Tracking 25710 objects as of 7-Jul-2022
HD Live streaming from Space Station
objects crossing your sky now

TEVEL-5

Track TEVEL-5 now!
10-day predictions
TEVEL-5 is classified as:


NORAD ID: 50998
Int'l Code: 2022-002Q
Perigee: 520.4 km
Apogee: 535.3 km
Inclination: 97.5 °
Period: 95.0 minutes
Semi major axis: 6898 km
RCS: Unknown
Launch date: January 13, 2022
Source: (TBD)
Launch site: AIR FORCE EASTERN TEST RANGE (AFETR)

Uplink (MHz): 145.970
Downlink (MHz): 436.400
Beacon (MHz):
Mode: 9600bps BPSK FM
Call sign: T5SNG
Status: Active

aabbcc
Your satellite tracking list
Your tracking list is empty




NASA's NSSDC Master Catalog

Two Line Element Set (TLE):
1 50998U 22002Q   22187.48123138  .00003879  00000-0  21055-3 0  9990
2 50998  97.4799 254.2474 0010824   2.8842 122.0433 15.15085524 26307
Source of the keplerian elements: AFSPC